Rechercher aéroport 
image banner adimage banner adimage banner ad
image banner ad

63CN - Meadowlark Field

Situé à Livermore, United States

ICAO - 63CN, IATA -

Données fournies par Airmate  

Information générale

Coordonnées: N37°39'41" W121°41'37"
Élévation : 730 feet MSL.
Variation magnétique : 16° East
Voir autres Aéroports à California

Données opérationnelles

Special qualification required
Heure actuelle UTC:
Heure actuelle locale:
Météo à : KLVK - Livermore Muni ( 12 km )
METAR: KLVK 291453Z 00000KT 10SM CLR 19/13 A2996 RMK AO2 SLP140 T01940133 53005
TAF: KLVK 291122Z 2912/3012 29006KT P6SM SKC FM292100 28009KT P6SM SKC FM300600 VRB05KT P6SM SKC
Voir NOTAMs / SUP AIP / TFR affectant cet aéroport [VIEW]
Fréquences de communication: [VIEW]

Pistes:

Identifiant RWYQFULongueur (ft)Largeur (ft)SurfaceLDA (ft)
07186025OTHER
25186025OTHER

Coordonnées de l'aéroport

Adresse: Livermore United States

Vue satellite de 63CN